DW4466 Weather Reports


Display with metric or nautical units.
time (UTC)temp
F
wind
direction
speed
MPH
gust
MPH
rain 1hr
in
rain 24hr
in
rain mn
in
humidity
%
barometer
mb
20260510185517 78 198 0.0 7.0 0.00 0.00 0.00 43 1010.6
20260510185049 78 167 2.0 9.0 0.00 0.00 0.00 46 1010.6
20260510184519 78 25 5.0 9.0 0.00 0.00 0.00 45 1010.6
20260510184047 78 19 4.0 11.0 0.00 0.00 0.00 45 1010.5
20260510183517 78 82 6.0 11.0 0.00 0.00 0.00 42 1010.6
20260510183050 79 85 7.0 12.0 0.00 0.00 0.00 45 1010.5
20260510182527 79 128 4.0 12.0 0.00 0.00 0.00 42 1010.6
20260510182042 79 6 7.0 12.0 0.00 0.00 0.00 45 1010.8
20260510181512 79 342 6.0 12.0 0.00 0.00 0.00 42 1010.8
20260510181045 79 8 4.0 16.0 0.00 0.00 0.00 48 1010.9
20260510180515 79 27 2.0 5.0 0.00 0.00 0.00 46 1010.7
20260510180032 79 175 1.0 9.0 0.00 0.00 0.00 45 1010.7
20260510175559 79 48 5.0 9.0 0.00 0.00 0.00 40 1011.0
20260510175501 79 339 5.0 10.0 0.00 0.00 0.00 41 1011.0
20260510175033 79 352 2.0 9.0 0.00 0.00 0.00 44 1011.0
20260510174548 78 234 2.0 9.0 0.00 0.00 0.00 45 1010.9
20260510174015 78 230 2.0 8.0 0.00 0.00 0.00 50 1010.9
20260510173549 77 43 3.0 7.0 0.00 0.00 0.00 49 1011.1
20260510173019 77 328 4.0 6.0 0.00 0.00 0.00 46 1011.1
20260510172553 78 102 3.0 8.0 0.00 0.00 0.00 48 1011.1
20260510172009 78 92 2.0 8.0 0.00 0.00 0.00 50 1011.3
20260510171538 78 26 1.0 5.0 0.00 0.00 0.00 48 1011.3
20260510171007 78 21 1.0 6.0 0.00 0.00 0.00 48 1011.3
20260510170539 78 302 3.0 7.0 0.00 0.00 0.00 46 1011.4
20260510170009 77 352 3.0 11.0 0.00 0.00 0.00 52 1011.6
20260510165544 77 329 4.0 14.0 0.00 0.00 0.00 50 1011.5
20260510165011 77 89 9.0 14.0 0.00 0.00 0.00 47 1011.6
20260510164553 76 350 6.0 11.0 0.00 0.00 0.00 52 1011.8
20260510164012 76 27 6.0 11.0 0.00 0.00 0.00 50 1011.7
20260510163529 75 38 7.0 14.0 0.00 0.00 0.00 49 1011.7
20260510163059 75 52 5.0 14.0 0.00 0.00 0.00 49 1011.6
20260510163002 76 27 4.0 14.0 0.00 0.00 0.00 49 1011.7
20260510162526 75 15 6.0 12.0 0.00 0.00 0.00 54 1011.7
20260510162059 75 36 8.0 13.0 0.00 0.00 0.00 49 1011.7
20260510162003 75 30 8.0 13.0 0.00 0.00 0.00 51 1011.7
20260510161535 75 59 6.0 13.0 0.00 0.00 0.00 50 1011.7
20260510161003 75 63 5.0 12.0 0.00 0.00 0.00 52 1011.8
20260510160529 75 33 5.0 11.0 0.00 0.00 0.00 51 1011.7
20260510160100 75 311 5.0 11.0 0.00 0.00 0.00 49 1011.7
20260510160002 75 55 8.0 11.0 0.00 0.00 0.00 50 1011.8
20260510155533 75 15 1.0 11.0 0.00 0.00 0.00 55 1011.9
20260510155002 74 25 8.0 13.0 0.00 0.00 0.00 52 1011.9
20260510154522 74 313 7.0 13.0 0.00 0.00 0.00 51 1012.2
20260510154054 74 344 2.0 11.0 0.00 0.00 0.00 54 1012.0
20260510153520 74 52 6.0 8.0 0.00 0.00 0.00 52 1011.9
20260510153053 74 42 4.0 9.0 0.00 0.00 0.00 55 1011.8
20260510152511 73 65 4.0 9.0 0.00 0.00 0.00 57 1011.9
20260510152041 73 109 4.0 11.0 0.00 0.00 0.00 56 1011.8
20260510151523 74 66 6.0 11.0 0.00 0.00 0.00 55 1011.8
20260510151047 74 29 4.0 10.0 0.00 0.00 0.00 55 1011.8
20260510150515 74 269 3.0 9.0 0.00 0.00 0.00 54 1011.7
20260510150105 73 344 2.0 9.0 0.00 0.00 0.00 57 1011.7
20260510145521 73 287 1.0 9.0 0.00 0.00 0.00 55 1011.8
20260510145048 72 286 3.0 9.0 0.00 0.00 0.00 61 1011.8
20260510144517 72 46 4.0 11.0 0.00 0.00 0.00 56 1012.0
20260510144049 72 306 0.0 7.0 0.00 0.00 0.00 60 1011.9
20260510143600 72 42 0.0 7.0 0.00 0.00 0.00 59 1011.9
20260510143502 71 40 3.0 7.0 0.00 0.00 0.00 59 1011.9
20260510143035 71 289 1.0 5.0 0.00 0.00 0.00 58 1011.9
20260510142600 71 3 2.0 5.0 0.00 0.00 0.00 57 1011.8
20260510142502 70 296 2.0 5.0 0.00 0.00 0.00 56 1011.7
20260510142035 70 321 1.0 3.0 0.00 0.00 0.00 63 1011.7
20260510141508 69 7 0.0 5.0 0.00 0.00 0.00 65 1011.7
20260510141039 68 48 2.0 6.0 0.00 0.00 0.00 65 1011.5
20260510140508 68 349 1.0 4.0 0.00 0.00 0.00 67 1011.6
20260510140043 68 32 2.0 4.0 0.00 0.00 0.00 65 1011.7
20260510135511 68 14 1.0 4.0 0.00 0.00 0.00 65 1011.7
20260510135040 68 38 0.0 2.0 0.00 0.00 0.00 67 1011.6
20260510134511 68 340 0.0 3.0 0.00 0.00 0.00 67 1011.5
20260510134042 68 13 0.0 3.0 0.00 0.00 0.00 68 1011.6
20260510133517 67 246 0.0 2.0 0.00 0.00 0.00 71 1011.7
20260510133050 66 264 0.0 4.0 0.00 0.00 0.00 71 1011.7
20260510132504 65 221 1.0 5.0 0.00 0.00 0.00 73 1011.7
20260510132038 65 250 2.0 4.0 0.00 0.00 0.00 73 1011.5
20260510131509 64 248 0.0 6.0 0.00 0.00 0.00 75 1011.5
20260510131041 64 291 0.0 6.0 0.00 0.00 0.00 77 1011.5
20260510130508 63 267 1.0 3.0 0.00 0.00 0.00 78 1011.6
20260510130040 62 248 0.0 3.0 0.00 0.00 0.00 78 1011.5
20260510125553 62 281 0.0 1.0 0.00 0.00 0.00 80 1011.5
20260510125022 61 224 0.0 3.0 0.00 0.00 0.00 81 1011.5
20260510124556 61 229 0.0 3.0 0.00 0.00 0.00 83 1011.5
20260510124028 60 281 0.0 3.0 0.00 0.00 0.00 85 1011.5
20260510123555 59 265 1.0 3.0 0.00 0.00 0.00 86 1011.5
20260510123030 59 244 0.0 2.0 0.00 0.00 0.00 89 1011.5
20260510122601 58 254 0.0 1.0 0.00 0.00 0.00 90 1011.4
20260510122502 58 246 0.0 1.0 0.00 0.00 0.00 89 1011.4
20260510122034 57 239 0.0 3.0 0.00 0.00 0.00 90 1011.6
20260510121504 56 237 0.0 3.0 0.00 0.00 0.00 93 1011.5
20260510121016 55 121 0.0 0.0 0.00 0.00 0.00 94 1011.8
20260510120547 55 152 0.0 1.0 0.00 0.00 0.00 95 1011.8
20260510120018 54 157 0.0 3.0 0.00 0.00 0.00 97 1011.8
20260510115548 53 246 0.0 3.0 0.00 0.00 0.00 97 1011.7
20260510115019 52 142 0.0 2.0 0.00 0.00 0.00 98 1011.7
20260510114550 52 142 0.0 3.0 0.00 0.00 0.00 98 1011.6
20260510114003 51 142 0.0 3.0 0.00 0.00 0.00 98 1011.6
20260510113542 51 138 1.0 3.0 0.00 0.00 0.00 98 1011.5
20260510113012 50 231 1.0 5.0 0.00 0.00 0.00 98 1011.4
20260510112548 50 175 2.0 5.0 0.00 0.00 0.00 98 1011.3
20260510112008 49 154 2.0 5.0 0.00 0.00 0.00 98 1011.3
20260510111545 49 138 2.0 6.0 0.00 0.00 0.00 98 1011.2
20260510111011 49 128 3.0 5.0 0.00 0.00 0.00 98 1011.1
20260510110543 48 148 3.0 4.0 0.00 0.00 0.00 98 1011.0
20260510110020 48 128 1.0 2.0 0.00 0.00 0.00 98 1011.0
20260510105551 47 128 0.0 2.0 0.00 0.00 0.00 97 1010.8
20260510105020 47 128 0.0 3.0 0.00 0.00 0.00 97 1010.7
20260510104556 47 128 0.0 3.0 0.00 0.00 0.00 98 1010.6
20260510104017 47 128 1.0 2.0 0.00 0.00 0.00 98 1010.5
20260510103552 46 43 0.0 2.0 0.00 0.00 0.00 97 1010.4
20260510103008 46 43 1.0 3.0 0.00 0.00 0.00 97 1010.3
20260510102544 46 43 1.0 3.0 0.00 0.00 0.00 97 1010.3
20260510102016 46 313 0.0 2.0 0.00 0.00 0.00 97 1010.2
20260510101548 46 273 1.0 2.0 0.00 0.00 0.00 97 1010.1
20260510101005 46 273 1.0 2.0 0.00 0.00 0.00 96 1009.9
20260510100540 46 273 0.0 2.0 0.00 0.00 0.00 96 1009.8
20260510100009 46 273 0.0 0.0 0.00 0.00 0.00 97 1009.8
20260510095542 46 273 0.0 0.0 0.00 0.00 0.00 96 1009.7
20260510095019 46 273 0.0 0.0 0.00 0.00 0.00 97 1009.7
20260510094545 46 273 0.0 0.0 0.00 0.00 0.00 96 1009.6
20260510094007 46 273 0.0 3.0 0.00 0.00 0.00 97 1009.7
20260510093541 46 273 0.0 3.0 0.00 0.00 0.00 96 1009.7
20260510093014 46 267 0.0 2.0 0.00 0.00 0.00 96 1009.8
20260510092547 46 267 0.0 3.0 0.00 0.00 0.00 96 1009.8
20260510092007 46 275 1.0 4.0 0.00 0.00 0.00 96 1009.8
20260510091535 47 273 2.0 4.0 0.00 0.00 0.00 96 1009.8
20260510091003 47 40 0.0 2.0 0.00 0.00 0.00 96 1009.8
20260510090540 47 40 0.0 2.0 0.00 0.00 0.00 96 1009.7
20260510090005 47 40 1.0 2.0 0.00 0.00 0.00 96 1009.6
20260510085523 47 40 0.0 2.0 0.00 0.00 0.00 96 1009.5
20260510085055 47 40 0.0 2.0 0.00 0.00 0.00 96 1009.5
20260510084531 47 107 1.0 2.0 0.00 0.00 0.00 96 1009.6
20260510084005 47 184 0.0 0.0 0.00 0.00 0.00 96 1009.6
20260510083540 47 184 0.0 0.0 0.00 0.00 0.00 96 1009.7
20260510083015 47 184 0.0 0.0 0.00 0.00 0.00 96 1009.7
20260510082540 48 184 0.0 0.0 0.00 0.00 0.00 96 1009.8
20260510082011 47 184 0.0 0.0 0.00 0.00 0.00 96 1009.7
20260510081544 47 184 0.0 0.0 0.00 0.00 0.00 96 1009.7
20260510081015 47 184 0.0 0.0 0.00 0.00 0.00 96 1009.7
20260510080550 47 184 0.0 1.0 0.00 0.00 0.00 96 1009.7
20260510080021 47 184 0.0 1.0 0.00 0.00 0.00 96 1009.6
20260510075553 47 184 0.0 2.0 0.00 0.00 0.00 96 1009.6
20260510075031 47 184 0.0 2.0 0.00 0.00 0.00 96 1009.5
20260510074552 47 184 0.0 2.0 0.00 0.00 0.00 96 1009.5
20260510074018 47 156 0.0 3.0 0.00 0.00 0.00 95 1009.4
20260510073551 48 236 0.0 3.0 0.00 0.00 0.00 96 1009.0
20260510073021 48 236 2.0 3.0 0.00 0.00 0.00 96 1008.9
20260510072555 48 225 1.0 3.0 0.00 0.00 0.00 95 1008.9
20260510072029 48 17 1.0 3.0 0.00 0.00 0.00 95 1008.7
20260510071604 48 330 0.0 3.0 0.00 0.00 0.00 95 1008.6
20260510071501 48 330 1.0 3.0 0.00 0.00 0.00 95 1008.6
20260510071039 48 330 0.0 2.0 0.00 0.00 0.00 95 1008.7
20260510070505 49 330 0.0 1.0 0.00 0.00 0.00 95 1008.8
20260510070052 49 330 0.0 1.0 0.00 0.00 0.00 94 1008.7
20260510065511 49 330 0.0 3.0 0.00 0.00 0.00 94 1008.8
20260510065044 49 330 0.0 3.0 0.00 0.00 0.00 95 1008.8
20260510064513 50 57 0.0 2.0 0.00 0.00 0.00 95 1008.6
20260510064045 50 57 0.0 2.0 0.00 0.00 0.00 96 1008.6
20260510063517 50 57 0.0 3.0 0.00 0.00 0.00 95 1008.6
20260510063049 50 57 1.0 3.0 0.00 0.00 0.00 95 1008.6
20260510062520 50 57 0.0 2.0 0.00 0.00 0.00 95 1008.6
20260510062053 50 57 0.0 2.0 0.00 0.00 0.00 95 1008.7
20260510061523 50 57 0.0 2.0 0.00 0.00 0.00 95 1008.7
20260510061056 50 57 0.0 0.0 0.00 0.00 0.00 95 1008.7
20260510060527 50 57 0.0 2.0 0.00 0.00 0.00 95 1008.8
20260510060003 50 57 1.0 2.0 0.00 0.00 0.00 95 1008.8
20260510055537 50 57 1.0 3.0 0.00 0.00 0.00 94 1008.7
20260510055007 51 41 0.0 1.0 0.00 0.00 0.00 94 1008.7
20260510054545 51 41 0.0 1.0 0.00 0.00 0.00 94 1008.6
20260510054054 51 41 0.0 1.0 0.00 0.00 0.00 94 1008.6
20260510053522 51 41 0.0 3.0 0.00 0.00 0.00 94 1008.6
20260510053051 51 41 0.0 3.0 0.00 0.00 0.00 94 1008.7
20260510052520 51 41 0.0 0.0 0.00 0.00 0.00 93 1008.7
20260510052052 51 21 0.0 0.0 0.00 0.00 0.00 93 1008.7
20260510051522 51 309 0.0 1.0 0.00 0.00 0.00 93 1008.6
20260510051057 51 309 0.0 1.0 0.00 0.00 0.00 93 1008.5
20260510050526 51 309 0.0 0.0 0.00 0.00 0.00 93 1008.6
20260510050003 52 309 0.0 0.0 0.00 0.00 0.00 93 1008.6
20260510045536 52 309 0.0 0.0 0.00 0.00 0.00 92 1008.5
20260510045005 52 309 0.0 0.0 0.00 0.00 0.00 91 1008.5
20260510044539 52 285 0.0 0.0 0.00 0.00 0.00 91 1008.5
20260510044020 52 285 0.0 0.0 0.00 0.00 0.00 91 1008.5
20260510043545 53 228 0.0 0.0 0.00 0.00 0.00 91 1008.5
20260510043013 53 228 0.0 1.0 0.00 0.00 0.00 91 1008.6
20260510042546 53 228 0.0 2.0 0.00 0.00 0.00 90 1008.5
20260510042016 53 228 1.0 2.0 0.00 0.00 0.00 90 1008.5
20260510041556 53 228 0.0 0.0 0.00 0.00 0.00 89 1008.6
20260510041025 54 228 0.0 0.0 0.00 0.00 0.00 89 1008.5
20260510040554 54 228 0.0 0.0 0.00 0.00 0.00 89 1008.5
20260510040027 54 228 0.0 0.0 0.00 0.00 0.00 89 1008.6
20260510035554 54 228 0.0 4.0 0.00 0.00 0.00 89 1008.7
20260510035031 54 228 1.0 4.0 0.00 0.00 0.00 88 1008.6
20260510034541 55 33 0.0 0.0 0.00 0.00 0.00 88 1008.6
20260510034009 55 33 0.0 2.0 0.00 0.00 0.00 87 1008.6
20260510033542 55 33 0.0 3.0 0.00 0.00 0.00 87 1008.6
20260510033013 55 33 0.0 2.0 0.00 0.00 0.00 87 1008.7
20260510032548 55 33 0.0 2.0 0.00 0.00 0.00 87 1008.6
20260510032100 55 33 0.0 4.0 0.00 0.00 0.00 87 1008.4
20260510032002 55 33 0.0 4.0 0.00 0.00 0.00 87 1008.4
20260510031537 56 31 3.0 4.0 0.00 0.00 0.00 86 1008.5
20260510031009 56 67 0.0 0.0 0.00 0.00 0.00 86 1008.2
20260510030542 56 67 0.0 1.0 0.00 0.00 0.00 86 1008.3
20260510030012 56 67 0.0 2.0 0.00 0.00 0.00 85 1008.2
20260510025532 56 67 0.0 3.0 0.00 0.00 0.00 85 1008.2
20260510025006 56 67 1.0 3.0 0.00 0.00 0.00 85 1008.2
20260510024542 57 51 2.0 3.0 0.00 0.00 0.00 83 1008.2
20260510024008 57 20 0.0 2.0 0.00 0.00 0.00 84 1008.1
20260510023542 57 20 0.0 2.0 0.00 0.00 0.00 83 1008.1
20260510023059 58 20 1.0 2.0 0.00 0.00 0.00 82 1008.1
20260510022537 58 267 0.0 1.0 0.00 0.00 0.00 81 1008.0
20260510022008 58 267 0.0 2.0 0.00 0.00 0.00 80 1008.0
20260510021543 58 267 1.0 2.0 0.00 0.00 0.00 80 1007.9
20260510021100 59 143 0.0 2.0 0.00 0.00 0.00 80 1007.9
20260510020528 59 143 0.0 1.0 0.00 0.00 0.00 79 1007.8
20260510020007 59 225 0.0 6.0 0.00 0.00 0.00 78 1007.7
20260510015536 60 225 0.0 6.0 0.00 0.00 0.00 77 1007.7
20260510015009 60 223 1.0 6.0 0.00 0.00 0.00 77 1007.8
20260510014542 60 223 0.0 0.0 0.00 0.00 0.00 76 1007.7
20260510014016 60 223 0.0 0.0 0.00 0.00 0.00 76 1007.6
20260510013550 61 223 0.0 0.0 0.00 0.00 0.00 75 1007.6
20260510013022 61 223 0.0 0.0 0.00 0.00 0.00 75 1007.5
20260510012553 61 223 0.0 0.0 0.00 0.00 0.00 74 1007.4
20260510012022 62 223 0.0 0.0 0.00 0.00 0.00 73 1007.2
20260510011559 62 223 0.0 0.0 0.00 0.00 0.00 71 1007.2
20260510011027 63 223 0.0 1.0 0.00 0.00 0.00 70 1007.0
20260510010507 64 223 0.0 2.0 0.00 0.00 0.00 68 1006.9
20260510010036 64 223 1.0 2.0 0.00 0.00 0.00 68 1006.9
20260510005508 65 240 0.0 0.0 0.00 0.00 0.00 67 1006.8
20260510005043 65 240 0.0 0.0 0.00 0.00 0.00 67 1006.7
20260510004559 65 240 0.0 0.0 0.00 0.00 0.00 66 1006.7
20260510004031 66 240 0.0 1.0 0.00 0.00 0.00 65 1006.6
20260510003506 66 240 0.0 3.0 0.00 0.00 0.00 64 1006.5
20260510003052 67 240 1.0 3.0 0.00 0.00 0.00 64 1006.5
20260510002511 67 147 0.0 0.0 0.00 0.00 0.00 62 1006.5
20260510002043 68 111 0.0 0.0 0.00 0.00 0.00 62 1006.5
20260510001510 68 111 0.0 0.0 0.00 0.00 0.00 61 1006.5
20260510001034 69 111 0.0 0.0 0.00 0.00 0.00 60 1006.5
20260510000508 70 111 0.0 0.0 0.00 0.00 0.00 59 1006.6
20260510000049 70 111 0.0 0.0 0.00 0.00 0.00 58 1006.6
20260509235513 71 111 0.0 0.0 0.00 0.00 0.00 57 1006.5
20260509235048 71 111 0.0 0.0 0.00 0.00 0.00 57 1006.4
20260509234509 71 111 0.0 1.0 0.00 0.00 0.00 56 1006.4
20260509234040 72 111 0.0 3.0 0.00 0.00 0.00 56 1006.4
20260509233513 72 111 1.0 3.0 0.00 0.00 0.00 54 1006.5
20260509233048 73 58 1.0 2.0 0.00 0.00 0.00 55 1006.4
20260509232518 73 34 0.0 0.0 0.00 0.00 0.00 52 1006.2
20260509232052 73 34 0.0 0.0 0.00 0.00 0.00 50 1006.2
20260509231526 73 34 0.0 1.0 0.00 0.00 0.00 49 1006.3
20260509231059 73 34 0.0 3.0 0.00 0.00 0.00 49 1006.2
20260509231002 73 34 0.0 3.0 0.00 0.00 0.00 50 1006.1
20260509230534 73 34 1.0 4.0 0.00 0.00 0.00 50 1006.2
20260509230004 74 357 2.0 4.0 0.00 0.00 0.00 48 1006.1
20260509225534 74 293 0.0 5.0 0.00 0.00 0.00 50 1006.0
20260509225012 74 337 3.0 5.0 0.00 0.00 0.00 51 1006.1
20260509224541 73 321 0.0 4.0 0.00 0.00 0.00 50 1006.1
20260509224013 73 32 2.0 5.0 0.00 0.00 0.00 52 1006.2
20260509223548 73 292 1.0 5.0 0.00 0.00 0.00 51 1006.4
20260509223018 74 304 0.0 2.0 0.00 0.00 0.00 52 1006.3
20260509222531 74 312 0.0 2.0 0.00 0.00 0.00 51 1006.2
20260509222003 73 273 0.0 4.0 0.00 0.00 0.00 54 1006.1
20260509221537 73 277 1.0 4.0 0.00 0.00 0.00 53 1006.2
20260509221008 73 84 1.0 5.0 0.00 0.00 0.00 56 1006.3
20260509220540 73 48 2.0 5.0 0.00 0.00 0.00 53 1006.4
20260509220009 73 61 1.0 6.0 0.00 0.00 0.00 53 1006.4
20260509215539 72 344 0.0 4.0 0.00 0.00 0.00 54 1006.3
20260509215011 72 12 1.0 4.0 0.00 0.00 0.00 57 1006.3
20260509214543 72 29 3.0 4.0 0.00 0.00 0.00 54 1006.2
20260509214015 71 232 1.0 3.0 0.00 0.00 0.00 56 1006.2
20260509213549 71 355 0.0 4.0 0.00 0.00 0.00 57 1006.2
20260509213005 71 338 2.0 4.0 0.00 0.00 0.00 55 1006.2
20260509212537 71 70 2.0 3.0 0.00 0.00 0.00 54 1006.2
20260509212009 71 344 1.0 3.0 0.00 0.00 0.00 56 1006.2
20260509211545 71 311 1.0 5.0 0.00 0.00 0.00 55 1006.2
20260509211059 71 9 2.0 8.0 0.00 0.00 0.00 53 1006.2
20260509211003 71 350 3.0 8.0 0.00 0.00 0.00 53 1006.2
20260509210519 72 50 1.0 4.0 0.00 0.00 0.00 53 1006.2
20260509210056 72 65 1.0 4.0 0.00 0.00 0.00 54 1006.1
20260509205534 72 273 2.0 9.0 0.00 0.00 0.00 53 1006.1
20260509205101 72 22 3.0 9.0 0.00 0.00 0.00 54 1006.1
20260509204526 72 331 3.0 7.0 0.00 0.00 0.00 55 1006.1
20260509204049 72 160 1.0 7.0 0.00 0.00 0.00 58 1006.0
20260509203519 71 103 3.0 7.0 0.00 0.00 0.00 56 1006.1
20260509203053 72 63 1.0 4.0 0.00 0.00 0.00 59 1006.0
20260509202531 72 198 2.0 5.0 0.00 0.00 0.00 55 1006.1
20260509202047 71 358 1.0 3.0 0.00 0.00 0.00 57 1006.1
20260509201520 72 331 1.0 4.0 0.00 0.00 0.00 56 1006.1
20260509201051 71 32 0.0 11.0 0.00 0.00 0.00 54 1006.2
20260509200529 71 332 5.0 11.0 0.00 0.00 0.00 53 1006.3
20260509200046 72 286 2.0 7.0 0.00 0.00 0.00 59 1006.4
20260509195516 71 18 2.0 9.0 0.00 0.00 0.00 54 1006.2
20260509195053 71 300 5.0 10.0 0.00 0.00 0.00 55 1006.3
20260509194519 71 250 7.0 11.0 0.00 0.00 0.00 53 1006.4
20260509194056 71 312 3.0 12.0 0.00 0.00 0.00 55 1006.4
20260509193511 71 263 5.0 13.0 0.00 0.00 0.00 55 1006.4
20260509193044 71 326 5.0 13.0 0.00 0.00 0.00 55 1006.5
20260509192512 71 326 3.0 15.0 0.00 0.00 0.00 54 1006.4
20260509192045 71 231 6.0 12.0 0.00 0.00 0.00 53 1006.4
20260509191517 71 188 6.0 12.0 0.00 0.00 0.00 55 1006.5
20260509191033 71 283 4.0 12.0 0.00 0.00 0.00 55 1006.6
20260509190504 70 261 6.0 12.0 0.00 0.00 0.00 58 1006.7
20260509190036 70 287 4.0 10.0 0.00 0.00 0.00 57 1006.8